一网星座-0133星 (ONEWEB-0133 )

导读

ONEWEB-0133是英国OneWeb(一网)项目旗下低轨宽带卫星,于2020年12月18日发射,隶属于OneWeb低地球轨道卫星互联网星座。该星座旨在搭建全球高速互联网络,填补地面网络空白,为偏远地区提供低成本互联网接入服务。本次发射是OneWeb完成破产重组后批量部署的新卫星,帮助OneWeb逐步推进规模组网,目前该卫星已在轨运营,支撑OneWeb向实现全球卫星互联网覆盖的目标推进。

Basic Information
目录编号:
47279
目录名称:
ONEWEB-0133
国际标识:
2020-100X
轨道中心:
EARTH
卫星名称:
一网星座-0133星
卫星全名:
一网星座-0133星 (ONEWEB-0133 )
卫星状态:
在轨 (已飞行2003 天)
发射日期:
2020-12-18 UTC
国别 :
英国 (GB)
星等 :
--
Orbit Information
数据来源 国际轨道数据 AOE轨道数据
星历时间 2026-06-12T09:09:03+0800
1天前
查看轨道信息
2026-06-08T17:00:00+0800
4天前
查看轨道信息
半长轴 7591.855km 7591.892km
偏心率 0.0001651 0.0003263
轨道倾角 87.895° 87.890°
近地点辐角 87.284° 122.979°
升交点赤经 351.670° 352.393°
平近点角 272.847° 173.043°
近地点 1212.464km 1211.277km
远地点 1214.972km 1216.233km
周期 109.719分钟 109.720分钟
每日圈数 13.124446 13.124348
Detailed Information
平衡模式:
三轴稳定
覆盖范围:
全球
运营商:
一网卫星公司
运营商所在国:
英国
制造商(研发单位):
一网卫星公司
制造商所在国:
英国
使用方式:
暂无
Satellite Introduction
OneWeb卫星网络由648颗重约125公斤的微型卫星组成,运行在1200公里的轨道上。 每颗卫星都能够提供至少每秒8千兆位的吞吐量,以使用其高吞吐量的Ku频段有效载荷为家庭和移动平台提供互联网接入。该卫星仍在工作。
2D Orbit Map
3D Orbit Map
Orbit Altitude Analysis Chart
Orbit Inclination Analysis Chart
Orbit Comprehensive Analysis Chart
View Comprehensive Chart